Content
SEND FEEDBACK

Daily
Averages
Monthly
Summary
United States of America

SULLIVANS ISLAND, SOUTH CAROLINA


Home > North America > United States > South Carolina
Elevation: 0 feet     Latitude: 32 46N     Longitude: 079 51W

WEATHER
 
SELECT A DAY
Number of Records: 144,929;   Date Range: 12/7/08 - 12/27/14
 
SHARE

PRINT THIS DATA

[ ← Previous Day ]
WEATHER ALMANAC - FEBRUARY 13, 2013
[ Next Day → ]
[ °C ]   °F
Weather ElementAverageHighLow
Temperature61.2 °F73.4 °F (3:55 pm)51.8 °F (3:15 am)
Dewpoint54.2 °F64.4 °F (10:35 am)42.8 °F (5:35 pm)
Humidity80.9 %100 % (12:35 am)38 % (5:35 pm)
Barometer29.80 in29.89 in (12:35 am)29.72 in (1:55 pm)
Wind Speed9.2 mph26.5 mph (5:55 pm)
Wind Gust40.3 mph (5:55 pm)
Weather ElementAverage
Visibility7.2 mi
Wind DirectionSSE (169.6 °)

Weather ElementTotal
Precipitation0.58 in
Heating Degree Days2.4 (Base 65)
Growing Degree Days12.6 (Base 50)
Averaged from 69 records on February 13, 2013
WEATHER CONDITIONS BREAKOUT
WIND DIRECTION BREAKOUT
WEATHER BY HOUR - FEBRUARY 13, 2013
[ °C ]   °F
Local TimeTemperatureDewpointHumidityBarometerVisibilityWind DirectionWind SpeedGust SpeedPrecipitationEventsConditions
12:35 AM53.6 °F53.6 °F100 %29.89 in5.0 miNE (40°)10.4 mph0.01 inRainRain
12:55 AM53.6 °F53.6 °F100 %29.89 in5.0 miNorth (350°)5.8 mph0.02 inLight Drizzle
1:15 AM53.6 °F53.6 °F100 %29.87 in2.5 miNorth (10°)8.1 mph0.07 inRainRain
1:35 AM53.6 °F51.8 °F94 %29.83 in2.0 miNE (50°)16.1 mph0.12 inRainLight Rain
1:55 AM53.6 °F53.6 °F100 %29.85 in2.5 miNNE (20°)8.1 mph0.15 inRainHeavy Rain
2:15 AM53.6 °F51.8 °F94 %29.86 in2.0 miNE (50°)8.1 mph0.05 inLight Drizzle
2:35 AM53.6 °F51.8 °F94 %29.84 in3.0 miNE (50°)4.6 mph0.06 inOvercast
2:55 AM53.6 °F51.8 °F94 %29.84 in10.0 miCalm0.07 inLight Drizzle
3:15 AM51.8 °F51.8 °F100 %29.83 in3.0 miNE (50°)10.4 mph0.01 inRainLight Rain
3:35 AM51.8 °F51.8 °F100 %29.80 in10.0 miENE (70°)9.2 mph0.01 inOvercast
3:55 AM51.8 °F51.8 °F100 %29.79 in10.0 miEast (80°)11.5 mph0.01 inOvercast
4:15 AM51.8 °F51.8 °F100 %29.78 in9.0 miEast (80°)11.5 mph0.00 inOvercast
4:35 AM53.6 °F51.8 °F94 %29.77 in6.0 miENE (70°)8.1 mph0.00 inOvercast
4:55 AM53.6 °F53.6 °F100 %29.77 in6.0 miENE (70°)6.9 mph0.00 inThunderstormOvercast
5:15 AM53.6 °F53.6 °F100 %29.77 in6.0 miCalm0.00 inOvercast
5:35 AM55.4 °F53.6 °F94 %29.78 in5.0 miSouth (170°)5.8 mph0.00 inOvercast
5:55 AM55.4 °F53.6 °F94 %29.75 in5.0 miEast (80°)3.5 mph0.00 inThunderstormOvercast
6:15 AM55.4 °F55.4 °F100 %29.77 in5.0 miCalm0.00 inOvercast
6:35 AM57.2 °F55.4 °F94 %29.77 in5.0 miCalm0.00 inOvercast
6:55 AM55.4 °F55.4 °F100 %29.77 in5.0 miCalm0.00 inOvercast
7:15 AM55.4 °F55.4 °F100 %29.79 in4.0 miCalm0.00 inOvercast
7:35 AM55.4 °F53.6 °F94 %29.79 in3.0 miNorth (350°)3.5 mph0.00 inOvercast
7:55 AM53.6 °F53.6 °F100 %29.78 in0.8 miCalm0.00 inOvercast
8:35 AM55.4 °F55.4 °F100 %29.80 in0.2 miCalm0.00 inFogFog
8:55 AM57.2 °F55.4 °F94 %29.80 in0.2 miCalm0.00 inFogFog
9:15 AM57.2 °F57.2 °F100 %29.81 in0.2 miCalm0.00 inFogFog
9:35 AM59.0 °F59.0 °F100 %29.80 in0.2 miSouth (190°)6.9 mph0.00 inFogFog
9:55 AM60.8 °F60.8 °F100 %29.81 in0.2 miSW (220°)5.8 mph0.00 inFogFog
10:15 AM62.6 °F62.6 °F100 %29.81 in8.0 miSW (230°)6.9 mph0.00 inOvercast
10:35 AM64.4 °F64.4 °F100 %29.80 in10.0 miSSW (200°)6.9 mph0.00 inOvercast
11:15 AM68.0 °F64.4 °F88 %29.80 in10.0 miWSW (240°)12.7 mph18.4 mph0.00 inOvercast
11:35 AM69.8 °F64.4 °F83 %29.78 in10.0 miSSW (210°)11.5 mph16.1 mph0.00 inMostly Cloudy
11:55 AM69.8 °F64.4 °F83 %29.78 in9.0 miSSW (200°)10.4 mph16.1 mph0.00 inOvercast
12:15 PM69.8 °F64.4 °F83 %29.77 in10.0 miSSW (200°)11.5 mph0.00 inMostly Cloudy
12:35 PM69.8 °F64.4 °F83 %29.77 in10.0 miSW (220°)8.1 mph19.6 mph0.00 inMostly Cloudy
12:55 PM69.8 °F64.4 °F83 %29.75 in10.0 miSSW (200°)13.8 mph19.6 mph0.00 inOvercast
1:15 PM69.8 °F62.6 °F78 %29.75 in7.0 miSSW (210°)10.4 mph20.7 mph0.00 inMostly Cloudy
1:35 PM69.8 °F64.4 °F83 %29.73 in8.0 miSSW (210°)9.2 mph0.00 inMostly Cloudy
1:55 PM71.6 °F64.4 °F78 %29.72 in10.0 miSSW (200°)11.5 mph0.00 inMostly Cloudy
2:15 PM69.8 °F64.4 °F83 %29.72 in9.0 miSSW (200°)12.7 mph18.4 mph0.00 inPartly Cloudy
2:35 PM69.8 °F64.4 °F83 %29.72 in7.0 miSSW (210°)11.5 mph20.7 mph0.00 inScattered Clouds
2:55 PM69.8 °F64.4 °F83 %29.72 in7.0 miSSW (210°)10.4 mph17.3 mph0.00 inMostly Cloudy
3:15 PM68.0 °F64.4 °F88 %29.73 in5.0 miSW (220°)10.4 mph0.00 inMostly Cloudy
3:35 PM71.6 °F64.4 °F78 %29.72 in8.0 miSW (220°)9.2 mph0.00 inPartly Cloudy
3:55 PM73.4 °F62.6 °F69 %29.72 in10.0 miWSW (240°)8.1 mph0.00 inClear
4:15 PM71.6 °F62.6 °F73 %29.73 in10.0 miCalm0.00 inClear
4:35 PM73.4 °F53.6 °F50 %29.75 in10.0 miWest (260°)10.4 mph16.1 mph0.00 inScattered Clouds
4:55 PM71.6 °F46.4 °F41 %29.76 in10.0 miWest (260°)12.7 mph24.2 mph0.00 inMostly Cloudy
5:15 PM71.6 °F46.4 °F41 %29.77 in10.0 miWest (260°)17.3 mph27.6 mph0.00 inMostly Cloudy
5:35 PM69.8 °F42.8 °F38 %29.78 in10.0 miWSW (250°)17.3 mph25.3 mph0.00 inMostly Cloudy
5:55 PM68.0 °F44.6 °F43 %29.79 in9.0 miWest (270°)26.5 mph40.3 mph0.00 inDrizzle
6:15 PM66.2 °F44.6 °F46 %29.80 in10.0 miWest (260°)15.0 mph26.5 mph0.00 inOvercast
6:35 PM66.2 °F44.6 °F46 %29.80 in10.0 miWest (260°)10.4 mph20.7 mph0.00 inMostly Cloudy
6:55 PM64.4 °F44.6 °F49 %29.81 in10.0 miWest (260°)17.3 mph26.5 mph0.00 inOvercast
7:15 PM64.4 °F44.6 °F49 %29.80 in10.0 miWest (260°)13.8 mph20.7 mph0.00 inOvercast
7:35 PM64.4 °F44.6 °F49 %29.80 in10.0 miWest (260°)16.1 mph24.2 mph0.00 inOvercast
7:55 PM64.4 °F44.6 °F49 %29.80 in10.0 miWSW (240°)9.2 mph19.6 mph0.00 inMostly Cloudy
8:15 PM64.4 °F44.6 °F49 %29.81 in10.0 miWSW (240°)10.4 mph0.00 inOvercast
8:35 PM64.4 °F46.4 °F52 %29.82 in10.0 miWest (260°)8.1 mph23.0 mph0.00 inOvercast
8:55 PM64.4 °F46.4 °F52 %29.82 in10.0 miWSW (250°)8.1 mph0.00 inOvercast
9:15 PM62.6 °F46.4 °F55 %29.82 in10.0 miWNW (290°)10.4 mph17.3 mph0.00 inOvercast
9:35 PM60.8 °F46.4 °F59 %29.87 in10.0 miWest (260°)26.5 mph33.4 mph0.00 inOvercast
9:55 PM57.2 °F48.2 °F72 %29.84 in10.0 miWest (280°)17.3 mph26.5 mph0.00 inOvercast
10:15 PM55.4 °F50.0 °F82 %29.87 in6.0 miWest (270°)11.5 mph21.9 mph0.00 inLight Drizzle
10:35 PM55.4 °F51.8 °F88 %29.87 in10.0 miWest (260°)8.1 mph0.00 inScattered Clouds
10:55 PM55.4 °F50.0 °F82 %29.89 in10.0 miWest (270°)10.4 mph0.00 inClear
11:15 PM53.6 °F50.0 °F88 %29.87 in10.0 miWest (280°)13.8 mph18.4 mph0.00 inClear
11:35 PM53.6 °F48.2 °F82 %29.87 in10.0 miWNW (300°)13.8 mph21.9 mph0.00 inClear
11:55 PM53.6 °F48.2 °F82 %29.89 in10.0 miWest (280°)9.2 mph20.7 mph0.00 inClear
Hourly data recorded from KJZI, located miles away from Sullivans Island, South Carolina







STORIES FROM OUR PARTNERS